This is the latest recevied weather packets stored in our database for station/object W5CRT. If no packets are shown the sender has not sent any weather packets the latest 10 day(s).
| Time | Temp. | Humidity | Pressure | Rain* | Wind** | Luminosity | Snow |
|---|---|---|---|---|---|---|---|
| 1778207065 | 16.67° C | 78% | 1013.1 hPa | 0 mm | - | 0 W/m² | - |
| 1778206762 | 16.67° C | 78% | 1013.3 hPa | 0 mm | - | 0 W/m² | - |
| 1778206458 | 16.67° C | 78% | 1013.1 hPa | 0 mm | - | 0 W/m² | - |
| 1778206154 | 17.22° C | 77% | 1013 hPa | 0 mm | - | 0 W/m² | - |
| 1778205852 | 17.22° C | 77% | 1012.9 hPa | 0 mm | - | 0 W/m² | - |
| 1778205549 | 17.22° C | 76% | 1013.2 hPa | 0 mm | - | 0 W/m² | - |
| 1778205247 | 17.22° C | 75% | 1013 hPa | 0 mm | - | 0 W/m² | - |
| 1778204943 | 17.22° C | 75% | 1013.3 hPa | 0 mm | - | 0 W/m² | - |
| 1778204640 | 17.78° C | 74% | 1013.1 hPa | 0 mm | - | 0 W/m² | - |
| 1778204335 | 17.78° C | 73% | 1013.1 hPa | 0 mm | - | 0 W/m² | - |
| 1778204032 | 17.78° C | 72% | 1013 hPa | 0 mm | - | 0 W/m² | - |
| 1778203729 | 18.33° C | 71% | 1013 hPa | 0 mm | - | 0 W/m² | - |
| 1778203426 | 18.33° C | 70% | 1013 hPa | 0 mm | - | 1 W/m² | - |
| 1778203124 | 18.33° C | 70% | 1012.8 hPa | 0 mm | - | 2 W/m² | - |
| 1778202822 | 18.33° C | 69% | 1013.3 hPa | 0 mm | - | 3 W/m² | - |
| 1778202519 | 18.89° C | 69% | 1012.7 hPa | 0 mm | - | 5 W/m² | - |
| 1778202216 | 18.89° C | 68% | 1012.9 hPa | 0 mm | - | 8 W/m² | - |
| 1778201913 | 18.89° C | 68% | 1013.2 hPa | 0 mm | - | 11 W/m² | - |
| 1778201610 | 18.89° C | 68% | 1012.9 hPa | 0 mm | - | 13 W/m² | - |
| 1778201306 | 19.44° C | 67% | 1013 hPa | 0 mm | - | 20 W/m² | - |
| 1778201002 | 19.44° C | 67% | 1012.8 hPa | 0 mm | - | 22 W/m² | - |
| 1778200699 | 19.44° C | 67% | 1012.7 hPa | 0 mm | - | 30 W/m² | - |
| 1778200396 | 20° C | 66% | 1013 hPa | 0 mm | - | 33 W/m² | - |
| 1778200093 | 20° C | 65% | 1013.1 hPa | 0 mm | - | 51 W/m² | - |
| 1778199790 | 20° C | 64% | 1012.9 hPa | 0 mm | - | 50 W/m² | - |
* Rain latest hour (hover to see other rain measurements)
** Current wind speed in m/s (hover to see current wind gust speed)